Regional Weather Roundup
Issued by NWS

Home | Current Version | Previous Version | Text Only | Print | Product List | Glossary On
Versions: 1 2 3 4 5 6 7 8 9 10 11 12 13 14 15 16 17 18 19 20 21 22 23 24 25 26 27 28 29 30 31 32 33 34 35 36 37 38 39 40 41 42 43 44 45 46 47 48 49 50
000
ASPQ40 PGUM 041114
RWRPQ
WEATHER ROUNDUP FOR THE MARIANAS AND MICRONESIA
NATIONAL WEATHER SERVICE TIYAN GU
900 PM CHST SAT JUL 04 2015

GUZ001>004-041200-
MARIANA ISLANDS-

CITY           SKY/WX    TMP DP  RH WIND       PRES   REMARKS
GUAM AIRPORT   MOCLDY    81  77  89 N17G23    29.56F
ANDERSEN AFB   CLOUDY    75  72  88 N15G25    29.55F
ROTA AIRPORT   NOT AVBL
TINIAN AP      NOT AVBL
SAIPAN AP      LGT RAIN  81  79  94 E32G44    29.54F FOG

$$

PMZ161-041200-
REPUBLIC OF PALAU-

CITY           SKY/WX    TMP DP  RH WIND       PRES   REMARKS
KOROR AP       CLOUDY    82  75  78 W14       29.80R
KOROR WSO      CLOUDY    82  77  83 W12       29.79R HX  91

$$

PMZ171>174-041200-
FEDERATED STATES OF MICRONESIA-

CITY           SKY/WX    TMP DP  RH WIND       PRES   REMARKS
YAP AIRPORT    CLOUDY    82  73  74 W9G21     29.76R
CHUUK AP       CLOUDY    82  79  89 S15       29.73R HX  93
POHNPEI AP     NOT AVBL
POHNPEI WSO    CLOUDY    79  77  94 SW3       29.84R
KOSRAE AP      NOT AVBL

$$

PMZ181-041200-
REPUBLIC OF THE MARSHALL ISLANDS-

CITY           SKY/WX    TMP DP  RH WIND       PRES   REMARKS
KWAJALEIN AP   PTCLDY    82  70  65 W15G21    29.73R
MAJURO AP      NOT AVBL
MAJURO WSO     MOCLDY    84  77  79 SW9       29.78R HX  94

$$



USA.gov is the U.S. government's official web portal to all federal, state and local government web resources and services.